TimeCST,TemperatureF,Dew PointF,Humidity,Sea Level PressureIn,VisibilityMPH,Wind Direction,Wind SpeedMPH,Gust SpeedMPH,PrecipitationIn,Events,Conditions,WindDirDegrees,DateUTC
12:15 AM,26.6,23.0,86,29.75,10.0,NNW,3.5,-,N/A,,Clear,340,2011-11-19 06:15:00
12:34 AM,26.6,23.0,86,29.75,10.0,Calm,Calm,-,N/A,,Scattered Clouds,0,2011-11-19 06:34:00
12:55 AM,30.2,26.6,86,29.73,10.0,Calm,Calm,-,N/A,,Mostly Cloudy,0,2011-11-19 06:55:00
1:15 AM,32.0,28.4,87,29.73,10.0,NNW,9.2,-,N/A,,Overcast,330,2011-11-19 07:15:00
1:34 AM,32.0,28.4,87,29.75,10.0,NW,6.9,-,N/A,,Overcast,310,2011-11-19 07:34:00
1:54 AM,32.0,28.4,87,29.75,10.0,NW,8.1,-,N/A,,Overcast,320,2011-11-19 07:54:00
2:15 AM,32.0,28.4,87,29.78,10.0,NW,9.2,-,N/A,,Overcast,310,2011-11-19 08:15:00
2:35 AM,32.0,26.6,80,29.79,10.0,NW,4.6,-,N/A,,Overcast,310,2011-11-19 08:35:00
2:55 AM,32.0,26.6,80,29.79,10.0,NNW,9.2,-,N/A,,Overcast,340,2011-11-19 08:55:00
3:15 AM,32.0,26.6,80,29.80,10.0,NNW,5.8,-,N/A,,Overcast,340,2011-11-19 09:15:00
3:35 AM,32.0,26.6,80,29.80,10.0,NNW,8.1,-,N/A,,Overcast,340,2011-11-19 09:35:00
3:54 AM,32.0,26.6,80,29.80,10.0,North,8.1,-,N/A,,Overcast,350,2011-11-19 09:54:00
4:15 AM,32.0,24.8,75,29.81,10.0,North,8.1,-,N/A,,Overcast,350,2011-11-19 10:15:00
4:35 AM,30.2,23.0,75,29.82,10.0,NNW,10.4,-,N/A,,Overcast,330,2011-11-19 10:35:00
5:15 AM,30.2,23.0,75,29.82,10.0,North,3.5,-,N/A,,Overcast,10,2011-11-19 11:15:00
5:35 AM,30.2,23.0,75,29.81,10.0,North,3.5,-,N/A,,Overcast,360,2011-11-19 11:35:00
6:15 AM,30.2,23.0,75,29.79,10.0,North,3.5,-,N/A,,Overcast,10,2011-11-19 12:15:00
6:35 AM,28.4,21.2,74,29.79,10.0,NNE,5.8,-,N/A,,Overcast,20,2011-11-19 12:35:00
6:55 AM,26.6,19.4,74,29.79,10.0,North,8.1,-,N/A,,Overcast,10,2011-11-19 12:55:00
7:15 AM,26.6,21.2,80,29.82,10.0,North,5.8,-,N/A,,Overcast,10,2011-11-19 13:15:00
7:35 AM,26.6,21.2,80,29.85,10.0,North,6.9,-,N/A,,Overcast,350,2011-11-19 13:35:00
7:55 AM,26.6,19.4,74,29.85,10.0,North,5.8,-,N/A,,Overcast,10,2011-11-19 13:55:00
8:15 AM,26.6,19.4,74,29.86,10.0,North,4.6,-,N/A,,Overcast,10,2011-11-19 14:15:00
8:35 AM,26.6,19.4,74,29.86,10.0,NNE,3.5,-,N/A,,Overcast,30,2011-11-19 14:35:00
8:55 AM,26.6,19.4,74,29.85,10.0,NE,6.9,-,N/A,,Overcast,50,2011-11-19 14:55:00
9:15 AM,26.6,21.2,80,29.84,10.0,NNE,4.6,-,N/A,,Overcast,30,2011-11-19 15:15:00
9:35 AM,26.6,21.2,80,29.85,10.0,NNE,5.8,-,N/A,,Overcast,20,2011-11-19 15:35:00
9:55 AM,26.6,21.2,80,29.86,5.0,North,4.6,-,N/A,Snow,Light Snow,10,2011-11-19 15:55:00
10:14 AM,26.6,21.2,80,29.87,1.8,North,5.8,-,N/A,Snow,Light Snow,10,2011-11-19 16:14:00
10:55 AM,26.6,23.0,86,29.85,0.5,North,4.6,-,0.01,Snow,Snow,10,2011-11-19 16:55:00
11:14 AM,26.6,23.0,86,29.83,0.5,North,6.9,-,N/A,Snow,Snow,10,2011-11-19 17:14:00
11:35 AM,26.6,23.0,86,29.84,0.5,North,4.6,-,N/A,Snow,Snow,350,2011-11-19 17:35:00
11:55 AM,26.6,23.0,86,29.83,0.5,North,5.8,-,N/A,Snow,Snow,10,2011-11-19 17:55:00
12:14 PM,26.6,23.0,86,29.83,0.5,NNE,4.6,-,N/A,Snow,Snow,20,2011-11-19 18:14:00
12:35 PM,26.6,23.0,86,29.82,0.5,North,4.6,-,N/A,Snow,Snow,360,2011-11-19 18:35:00
12:55 PM,26.6,23.0,86,29.82,0.5,North,4.6,-,0.03,Snow,Snow,10,2011-11-19 18:55:00
1:34 PM,26.6,23.0,86,29.82,0.2,North,3.5,-,0.04,Snow,Snow,360,2011-11-19 19:34:00
1:55 PM,26.6,23.0,86,29.83,0.2,North,4.6,-,0.06,Snow,Heavy Snow,10,2011-11-19 19:55:00
2:15 PM,26.6,23.0,86,29.84,0.5,North,4.6,-,0.02,Snow,Snow,360,2011-11-19 20:15:00
2:35 PM,26.6,23.0,86,29.85,0.2,North,4.6,-,0.03,Snow,Snow,360,2011-11-19 20:35:00
3:15 PM,26.6,24.8,93,29.86,0.2,North,5.8,-,0.01,Snow,Snow,350,2011-11-19 21:15:00
3:35 PM,26.6,24.8,93,29.87,0.2,North,5.8,-,0.03,Snow,Snow,360,2011-11-19 21:35:00
3:55 PM,26.6,24.8,93,29.87,0.2,North,4.6,-,0.04,Snow,Snow,360,2011-11-19 21:55:00
4:15 PM,26.6,24.8,93,29.89,0.5,North,6.9,-,0.01,Snow,Snow,10,2011-11-19 22:15:00
4:34 PM,26.6,24.8,93,29.89,1.0,North,5.8,-,0.01,Snow,Light Snow,10,2011-11-19 22:34:00
4:55 PM,26.6,24.8,93,29.91,2.0,North,8.1,-,0.01,Snow,Light Snow,350,2011-11-19 22:55:00
5:35 PM,24.8,21.2,86,29.92,3.0,North,5.8,-,N/A,Snow,Light Snow,360,2011-11-19 23:35:00
5:55 PM,24.8,21.2,86,29.93,3.0,North,5.8,-,N/A,Snow,Light Snow,10,2011-11-19 23:55:00
6:15 PM,24.8,21.2,86,29.95,7.0,North,4.6,-,N/A,Snow,Light Snow,360,2011-11-20 00:15:00
6:35 PM,24.8,19.4,80,29.96,10.0,North,9.2,-,N/A,,Overcast,350,2011-11-20 00:35:00
6:55 PM,24.8,19.4,80,29.97,10.0,North,5.8,-,N/A,,Overcast,360,2011-11-20 00:55:00
7:15 PM,24.8,19.4,80,29.99,10.0,North,8.1,-,N/A,,Overcast,350,2011-11-20 01:15:00
7:35 PM,24.8,17.6,74,30.01,10.0,North,6.9,-,N/A,,Overcast,360,2011-11-20 01:35:00
7:55 PM,24.8,17.6,74,30.02,10.0,North,8.1,-,N/A,,Overcast,360,2011-11-20 01:55:00
8:15 PM,23.0,17.6,80,30.03,10.0,North,4.6,-,N/A,,Overcast,360,2011-11-20 02:15:00
8:35 PM,23.0,17.6,80,30.04,10.0,North,4.6,-,N/A,,Overcast,360,2011-11-20 02:35:00
8:55 PM,21.2,15.8,80,30.05,10.0,North,10.4,16.1,N/A,,Overcast,350,2011-11-20 02:55:00
9:14 PM,21.2,14.0,74,30.07,10.0,North,6.9,-,N/A,,Overcast,360,2011-11-20 03:14:00
9:35 PM,21.2,14.0,74,30.08,10.0,North,4.6,-,N/A,,Overcast,350,2011-11-20 03:35:00
9:55 PM,21.2,15.8,80,30.10,10.0,North,6.9,-,N/A,,Overcast,360,2011-11-20 03:55:00
10:14 PM,21.2,14.0,74,30.10,10.0,North,6.9,-,N/A,,Overcast,350,2011-11-20 04:14:00
10:35 PM,19.4,14.0,80,30.11,10.0,NNW,11.5,-,N/A,,Overcast,340,2011-11-20 04:35:00
11:14 PM,19.4,12.2,74,30.15,10.0,NNW,9.2,-,N/A,,Overcast,340,2011-11-20 05:14:00
11:34 PM,19.4,12.2,74,30.15,10.0,North,4.6,-,N/A,,Overcast,350,2011-11-20 05:34:00